Location: Bennemühlen
(52.5740°N, 9.7135°E)
Time: 07:53:25
(UTC+00:00)

Vanguard 2 Rocket - Pass Details

Date: 19 February 2026
Orbit: 553 x 3286 km, 32.9° (Epoch: 7 March)

Event Time Altitude Azimuth Distance (km) Brightness Sun altitude
Rises 10:16:06 0° 209° (SSW) 7,228 12.0 24.0°
Reaches altitude 10° 10:22:31 10° 198° (SSW) 6,216 12.1 24.4°
Maximum altitude 10:35:54 24° 155° (SSE) 4,729 13.1 25.0°
Drops below altitude 10° 10:46:52 10° 110° (ESE) 5,055 11.2 25.4°
Sets 10:51:16 0° 97° (E) 5,657 11.2 25.6°
